Location: Castro Valley
(37.6940°N, 122.0850°W)
Time: 18:48:47
(UTC-07:00)

Amateur Radio Satellites - All Passes

Search period start: 27 March 2015 18:18
Search period end: 28 March 2015 18:18
Location: Castro Valley, 37.6940°N, 122.0850°W

Satellite Date Start Highest point End Downlink Frequencies (MHz)
Time Altitude Azimuth
SO-50 27 Mar 18:41:40 18:44:24 16° 110° (ESE) 18:47:24 436.795
AO-7 27 Mar 18:43:25 18:45:20 10° 275° (W) 18:46:24 29.400- 29.500
MOZHAYETS 4 27 Mar 19:00:27 19:03:55 21° 292° (WNW) 19:07:15
CUBESAT XI-V 27 Mar 19:04:09 19:08:18 33° 96° (E) 19:12:28 437.345
STRAND 1 27 Mar 19:04:36 19:07:56 18° 92° (E) 19:11:26 437.568
PRISM 27 Mar 19:07:22 19:10:51 26° 96° (E) 19:14:22 437.425
AUBIESAT-1 27 Mar 19:08:02 19:12:44 52° 291° (WNW) 19:17:20 437.475
SRMSAT 27 Mar 19:08:08 19:10:47 13° 183° (S) 19:13:26 437.500
BEESAT 2 27 Mar 19:20:38 19:23:21 17° 46° (NE) 19:26:09 435.950
M-CUBED/EXP-1 PRIME 27 Mar 19:31:11 19:35:22 28° 295° (WNW) 19:39:25 437.505
Cubesat XI-IV 27 Mar 19:47:04 19:51:19 23° 267° (W) 19:55:24 437.490
CUTE-I 27 Mar 19:47:28 19:51:43 23° 267° (W) 19:55:48 437.470
RS-15 27 Mar 19:59:12 20:10:04 81° 118° (ESE) 20:21:09 29.354- 29.394
BEESAT 3 27 Mar 19:59:13 20:03:12 46° 55° (NE) 20:07:07 437.485
GONETS M04 27 Mar 20:01:44 20:10:16 68° 93° (E) 20:18:56
BRITE-PL 27 Mar 20:01:49 20:05:49 27° 72° (ENE) 20:09:38 437.365/2234.400
CANX-2 27 Mar 20:10:23 20:13:12 18° 69° (ENE) 20:16:10 2200.000
SO-50 27 Mar 20:20:03 20:24:33 51° 305° (NW) 20:29:13 436.795
AIST 2 27 Mar 20:20:47 20:24:17 25° 50° (NE) 20:27:48 435.215
CUTE 1.7 + AOD 2 27 Mar 20:24:05 20:27:23 23° 70° (ENE) 20:30:48 437.475
HO-68 27 Mar 20:34:21 20:41:13 54° 69° (ENE) 20:48:12 435.675
CUBESAT XI-V 27 Mar 20:41:58 20:45:36 22° 291° (WNW) 20:49:06 437.345
STRAND 1 27 Mar 20:42:32 20:47:27 48° 288° (WNW) 20:52:19 437.568
PRISM 27 Mar 20:42:54 20:46:15 23° 291° (WNW) 20:49:28 437.425
CINEMA 3 27 Mar 20:50:27 20:53:16 18° 69° (ENE) 20:56:11 145.822/145.860
SEEDS 27 Mar 20:55:24 20:59:22 44° 74° (ENE) 21:03:24 437.485
AAUSAT CUBESAT 2 27 Mar 20:55:29 20:59:07 30° 72° (ENE) 21:02:50 437.432
DOVE 4 27 Mar 20:55:44 20:59:53 42° 74° (ENE) 21:03:55 437.250
GOMX 1 27 Mar 20:57:36 21:02:12 70° 76° (ENE) 21:06:31 467.674
BEESAT 2 27 Mar 20:57:49 21:01:47 45° 244° (WSW) 21:05:40 435.950
Oscar 11 27 Mar 21:07:22 21:10:28 20° 69° (ENE) 21:13:43 145.826/435.025
UWE-3 27 Mar 21:14:30 21:16:40 14° 68° (ENE) 21:19:01 435.000/436.395/437.385
CUBEBUG 2 27 Mar 21:14:58 21:17:43 18° 69° (ENE) 21:20:36 437.445
FUNcube-1 27 Mar 21:16:04 21:17:24 12° 66° (ENE) 21:18:58 145.935
COMPASS 1 27 Mar 21:20:30 21:24:39 72° 76° (ENE) 21:28:51 437.405
ZACube-1 27 Mar 21:26:58 21:29:28 16° 68° (ENE) 21:32:06 437.345
BEESAT 3 27 Mar 21:38:42 21:40:54 14° 250° (WSW) 21:42:53 437.485
BRITE-PL 27 Mar 21:40:13 21:44:20 26° 264° (W) 21:48:07 437.365/2234.400
CANX-2 27 Mar 21:45:03 21:48:55 34° 263° (W) 21:52:48 2200.000
CUSAT 1 27 Mar 21:51:06 21:54:10 62° 279° (W) 21:56:50 437.405
AIST 2 27 Mar 21:59:11 22:02:54 30° 247° (WSW) 22:06:31 435.215
CUTE 1.7 + AOD 2 27 Mar 21:59:38 22:03:13 26° 265° (W) 22:06:47 437.475
GONETS M04 27 Mar 22:01:06 22:07:59 24° 294° (WNW) 22:14:35
50 SAT 27 Mar 22:05:06 22:06:54 13° 68° (ENE) 22:08:54 437.505
UKube-1 27 Mar 22:12:02 22:16:07 42° 73° (ENE) 22:20:15 .
RS-15 27 Mar 22:14:23 22:23:51 31° 323° (NW) 22:33:18 29.354- 29.394
DX 1 27 Mar 22:19:36 22:23:52 55° 74° (ENE) 22:28:09 434.975-435.025
DELFI C3 27 Mar 22:21:11 22:25:14 72° 258° (WSW) 22:29:19 145.870
HO-68 27 Mar 22:23:24 22:29:20 27° 266° (W) 22:35:05 435.675
CINEMA 3 27 Mar 22:26:28 22:30:19 32° 263° (W) 22:34:04 145.822/145.860
DANDE 27 Mar 22:29:44 22:32:32 24° 281° (W) 22:34:54 436.750
HUMSAT D 27 Mar 22:30:59 22:34:51 43° 74° (ENE) 22:38:46 437.325/437.525
AAUSAT CUBESAT 2 27 Mar 22:31:46 22:34:50 19° 267° (W) 22:37:48 437.432
SEEDS 27 Mar 22:33:16 22:35:29 13° 270° (W) 22:37:29 437.485
DOVE 4 27 Mar 22:35:25 22:37:55 14° 268° (W) 22:40:09 437.250
Oscar 11 27 Mar 22:42:38 22:46:29 31° 264° (W) 22:50:21 145.826/435.025
UWE-3 27 Mar 22:48:59 22:52:56 41° 262° (W) 22:56:52 435.000/436.395/437.385
FUNcube-1 27 Mar 22:49:18 22:53:21 53° 260° (W) 22:57:25 145.935
CUBEBUG 2 27 Mar 22:50:29 22:54:15 32° 263° (W) 22:57:59 437.445
VELOX 1 27 Mar 22:52:16 22:56:35 52° 74° (ENE) 23:00:55 145.980
AISAT 27 Mar 22:56:05 23:00:27 59° 75° (ENE) 23:04:51 437.250
UNISAT 6 27 Mar 22:56:29 23:00:01 22° 94° (E) 23:03:42 437.425
CUBEBUG 1 27 Mar 22:58:22 23:02:01 26° 71° (ENE) 23:05:44 437.445
ZACube-1 27 Mar 23:01:44 23:05:36 36° 263° (W) 23:09:27 437.345
POPSAT HIP 1 27 Mar 23:05:31 23:07:07 12° 90° (E) 23:08:58 437.405
TIGRISAT 27 Mar 23:07:18 23:11:13 28° 96° (E) 23:15:15 435.000
NANOSAT C BR1 27 Mar 23:16:01 23:18:39 17° 92° (E) 23:21:26 145.865
SPROUT 27 Mar 23:18:01 23:18:18 10° 65° (ENE) 23:18:51 437.525
POLYITAN 1 27 Mar 23:18:24 23:21:17 18° 93° (E) 23:24:18 437.675
ESTCUBE 1 27 Mar 23:19:31 23:23:56 52° 74° (ENE) 23:28:22 437.505/2401.250
ISS 27 Mar 23:21:20 23:24:28 46° 136° (SE) 23:27:36 145.825
PCSat 27 Mar 23:27:59 23:30:52 15° 44° (NE) 23:33:57 145.827
ANTELSAT 27 Mar 23:36:11 23:40:45 62° 101° (E) 23:45:22 437.575/2403.000
50 SAT 27 Mar 23:37:49 23:41:30 40° 261° (W) 23:45:14 437.505
UKube-1 27 Mar 23:49:54 23:52:31 15° 268° (W) 23:54:58 .
QB50P1 27 Mar 23:55:50 23:59:56 49° 99° (E) 00:04:03 145.935-145.965
DUCHIFAT 1 27 Mar 23:58:43 00:02:50 52° 100° (E) 00:06:57 145.980
DX 1 27 Mar 23:58:51 00:00:32 12° 270° (W) 00:01:56 434.975-435.025
YUBILEINY 28 Mar 00:02:21 00:07:55 19° 63° (ENE) 00:13:55 435.215
HUMSAT D 28 Mar 00:08:55 00:10:56 13° 270° (W) 00:12:43 437.325/437.525
QB50P2 28 Mar 00:09:56 00:14:11 76° 102° (ESE) 00:18:25 145.880/145.840
VELOX 1 28 Mar 00:31:25 00:33:32 13° 270° (W) 00:35:25 145.980
UNISAT 6 28 Mar 00:32:46 00:36:52 32° 288° (WNW) 00:40:57 437.425
CUBEBUG 1 28 Mar 00:34:40 00:38:21 25° 265° (W) 00:41:59 437.445
RS-15 28 Mar 00:35:23 00:41:26 15° 357° (N) 00:47:32 29.354- 29.394
AISAT 28 Mar 00:36:07 00:37:32 11° 271° (W) 00:38:38 437.250
POPSAT HIP 1 28 Mar 00:39:16 00:43:22 49° 286° (WNW) 00:47:26 437.405
TIGRISAT 28 Mar 00:44:06 00:47:53 26° 290° (WNW) 00:51:39 435.000
TISAT 1 28 Mar 00:45:34 00:49:48 88° 257° (WSW) 00:54:02 437.305
SWISSCUBE 28 Mar 00:45:38 00:48:28 16° 66° (ENE) 00:51:30 437.505
BUGSAT 1 28 Mar 00:47:48 00:51:45 53° 285° (WNW) 00:55:39 437.445
BEESAT 28 Mar 00:48:58 00:51:45 16° 66° (ENE) 00:54:45 436.000
SPROUT 28 Mar 00:49:38 00:53:54 68° 259° (W) 00:58:11 437.525
NANOSAT C BR1 28 Mar 00:50:48 00:54:41 36° 288° (WNW) 00:58:32 145.865
POLYITAN 1 28 Mar 00:53:29 00:57:20 33° 288° (WNW) 01:01:07 437.675
ISS 28 Mar 00:58:29 01:01:02 21° 332° (NNW) 01:03:34 145.825
ESTCUBE 1 28 Mar 00:58:50 01:01:11 13° 270° (W) 01:03:17 437.505/2401.250
PCSat 28 Mar 01:09:39 01:15:07 87° 239° (WSW) 01:20:31 145.827
ANTELSAT 28 Mar 01:14:59 01:17:06 13° 294° (WNW) 01:19:01 437.575/2403.000
ITUPSAT 1 28 Mar 01:32:46 01:37:18 44° 72° (ENE) 01:41:54 437.325
QB50P1 28 Mar 01:33:22 01:35:27 13° 293° (WNW) 01:37:20 145.935-145.965
Oscar 19 28 Mar 01:35:09 01:38:30 18° 91° (E) 01:42:03 437.125/150
DUCHIFAT 1 28 Mar 01:36:25 01:38:16 12° 294° (WNW) 01:39:56 145.980
YUBILEINY 28 Mar 01:57:13 02:06:05 85° 264° (W) 02:14:51 435.215
SWISSCUBE 28 Mar 02:21:17 02:25:58 51° 260° (W) 02:30:40 437.505
BEESAT 28 Mar 02:24:33 02:29:14 52° 261° (W) 02:33:55 436.000
ITAMSAT 1 28 Mar 02:36:38 02:40:30 22° 93° (E) 02:44:31 435.822/435.867
RS-15 28 Mar 02:50:32 02:59:31 26° 32° (NNE) 03:09:06 29.354- 29.394
KKS-1 28 Mar 02:58:39 03:03:02 67° 75° (ENE) 03:07:27 437.445
ITUPSAT 1 28 Mar 03:12:08 03:15:28 18° 268° (W) 03:18:37 437.325
Oscar 19 28 Mar 03:13:11 03:18:11 49° 288° (WNW) 03:23:10 437.125/150
SO-50 28 Mar 03:14:24 03:16:42 13° 40° (NE) 03:19:11 436.795
Gurwin Techsat 1B 28 Mar 03:15:29 03:20:31 43° 98° (E) 03:25:33 435.225
HORYU 2 28 Mar 03:30:19 03:31:29 11° 89° (E) 03:32:57 437.375
STARS 28 Mar 03:34:24 03:38:47 77° 258° (WSW) 03:43:10 437.465
YUBILEINY 28 Mar 03:57:09 04:01:45 15° 281° (W) 04:05:41 435.215
ITAMSAT 1 28 Mar 04:15:22 04:20:12 40° 289° (WNW) 04:25:00 435.822/435.867
AUBIESAT-1 28 Mar 04:22:04 04:24:07 14° 60° (ENE) 04:26:24 437.475
MOZHAYETS 4 28 Mar 04:23:00 04:26:54 28° 70° (ENE) 04:30:54
JAS-2 28 Mar 04:43:21 04:50:30 41° 94° (E) 04:57:11 435.910
M-CUBED/EXP-1 PRIME 28 Mar 04:43:43 04:47:01 26° 64° (ENE) 04:50:38 437.505
O/OREOS (USA 219) 28 Mar 04:44:44 04:49:17 71° 109° (ESE) 04:53:53 437.305
AO-7 28 Mar 04:46:24 04:54:14 46° 100° (E) 05:02:08 29.400- 29.500
AIST 1 28 Mar 04:49:00 04:53:23 76° 96° (E) 04:57:48
SO-50 28 Mar 04:53:05 04:58:04 85° 59° (ENE) 05:02:59 436.795
Gurwin Techsat 1B 28 Mar 04:56:08 05:00:15 23° 293° (WNW) 05:04:13 435.225
VERMONT LUNAR 28 Mar 05:01:51 05:03:00 12° 144° (SE) 05:04:17 437.305
RS-15 28 Mar 05:02:33 05:14:09 80° 58° (ENE) 05:26:15 29.354- 29.394
HORYU 2 28 Mar 05:04:09 05:08:37 61° 285° (WNW) 05:13:03 437.375
ISS 28 Mar 05:50:34 05:53:26 29° 31° (NNE) 05:56:20 145.825
AUBIESAT-1 28 Mar 05:54:42 05:58:29 49° 257° (WSW) 06:02:38 437.475
PRISM 28 Mar 05:56:49 05:59:24 17° 68° (ENE) 06:02:08 437.425
MOZHAYETS 4 28 Mar 06:00:15 06:04:08 25° 266° (W) 06:07:56
CUBESAT XI-V 28 Mar 06:05:56 06:09:51 27° 70° (ENE) 06:13:50 437.345
GONETS M04 28 Mar 06:14:47 06:22:11 30° 69° (ENE) 06:29:50
STRAND 1 28 Mar 06:18:40 06:22:33 23° 67° (ENE) 06:26:34 437.568
M-CUBED/EXP-1 PRIME 28 Mar 06:18:47 06:21:56 23° 262° (W) 06:25:14 437.505
Cubesat XI-IV 28 Mar 06:26:04 06:29:42 19° 92° (E) 06:33:30 437.490
CUTE-I 28 Mar 06:26:20 06:29:56 19° 92° (E) 06:33:43 437.470
O/OREOS (USA 219) 28 Mar 06:27:29 06:29:19 12° 307° (NW) 06:30:57 437.305
JAS-2 28 Mar 06:28:21 06:35:29 40° 293° (WNW) 06:42:02 435.910
VERMONT LUNAR 28 Mar 06:37:01 06:40:18 58° 157° (SSE) 06:43:37 437.305
AO-7 28 Mar 06:39:26 06:46:56 39° 297° (WNW) 06:54:19 29.400- 29.500
PHONESAT 2.4 28 Mar 07:05:45 07:09:05 42° 154° (SSE) 07:12:27 2401.200-2431.200
RS-15 28 Mar 07:16:31 07:25:42 26° 255° (WSW) 07:34:32 29.354- 29.394
ISS 28 Mar 07:27:02 07:29:48 26° 227° (SW) 07:32:31 145.825
PRISM 28 Mar 07:30:40 07:34:37 38° 262° (W) 07:38:34 437.425
CUBESAT XI-V 28 Mar 07:43:10 07:47:14 28° 265° (W) 07:51:15 437.345
STRAND 1 28 Mar 07:56:41 08:01:32 40° 262° (W) 08:06:22 437.568
Cubesat XI-IV 28 Mar 08:05:00 08:10:08 48° 288° (WNW) 08:15:12 437.490
CUTE-I 28 Mar 08:05:14 08:10:21 49° 288° (WNW) 08:15:25 437.470
GONETS M04 28 Mar 08:10:59 08:19:33 56° 269° (W) 08:28:02
VERMONT LUNAR 28 Mar 08:14:47 08:18:05 53° 353° (N) 08:21:23 437.305
CUSAT 1 28 Mar 08:26:54 08:31:08 63° 81° (E) 08:36:50 437.405
PHONESAT 2.4 28 Mar 08:43:54 08:47:24 62° 350° (N) 08:50:55 2401.200-2431.200
DOVE 4 28 Mar 08:57:47 08:59:38 13° 91° (E) 09:01:47 437.250
GOMX 1 28 Mar 09:01:31 09:04:46 21° 94° (E) 09:08:15 467.674
COMPASS 1 28 Mar 09:07:41 09:09:44 14° 90° (E) 09:12:00 437.405
DANDE 28 Mar 09:08:18 09:12:17 63° 261° (W) 09:17:40 436.750
CANX-2 28 Mar 09:31:55 09:36:03 44° 98° (E) 09:40:12 2200.000
BRITE-PL 28 Mar 09:45:37 09:49:48 74° 283° (WNW) 09:54:09 437.365/2234.400
CUTE 1.7 + AOD 2 28 Mar 09:45:58 09:50:14 59° 100° (E) 09:54:30 437.475
HO-68 28 Mar 09:51:18 09:58:29 67° 103° (ESE) 10:05:37 435.675
VERMONT LUNAR 28 Mar 09:52:42 09:56:02 61° 10° (N) 09:59:23 437.305
BEESAT 3 28 Mar 09:52:53 09:54:49 13° 110° (ESE) 09:56:58 437.485
UNISAT 6 28 Mar 09:55:07 09:57:31 15° 67° (ENE) 10:00:07 437.425
DELFI C3 28 Mar 10:03:52 10:06:37 18° 92° (E) 10:09:29 145.870
TIGRISAT 28 Mar 10:05:22 10:08:20 19° 69° (ENE) 10:11:26 435.000
NANOSAT C BR1 28 Mar 10:09:10 10:09:56 11° 66° (ENE) 10:10:57 145.865
POLYITAN 1 28 Mar 10:11:33 10:12:58 12° 66° (ENE) 10:14:36 437.675
CUSAT 1 28 Mar 10:12:22 10:14:00 11° 266° (W) 10:15:23 437.405
DX 1 28 Mar 10:12:41 10:13:28 11° 89° (E) 10:14:33 434.975-435.025
AAUSAT CUBESAT 2 28 Mar 10:15:23 10:19:38 76° 101° (ESE) 10:23:51 437.432
SEEDS 28 Mar 10:17:07 10:21:24 71° 284° (WNW) 10:25:40 437.485
CINEMA 3 28 Mar 10:22:06 10:26:27 60° 100° (E) 10:31:01 145.822/145.860
PHONESAT 2.4 28 Mar 10:22:30 10:25:59 56° 7° (N) 10:29:30 2401.200-2431.200
Oscar 11 28 Mar 10:31:18 10:35:34 51° 99° (E) 10:39:50 145.826/435.025
DOVE 4 28 Mar 10:33:32 10:37:43 50° 285° (WNW) 10:42:06 437.250
ANTELSAT 28 Mar 10:33:51 10:37:49 41° 73° (ENE) 10:41:54 437.575/2403.000
GOMX 1 28 Mar 10:39:16 10:42:58 29° 288° (WNW) 10:46:46 467.674
FUNcube-1 28 Mar 10:39:28 10:43:22 32° 96° (E) 10:47:23 145.935
UWE-3 28 Mar 10:40:13 10:44:23 41° 98° (E) 10:48:41 435.000/436.395/437.385
COMPASS 1 28 Mar 10:41:40 10:45:44 44° 286° (WNW) 10:49:46 437.405
CUBEBUG 2 28 Mar 10:42:29 10:46:49 54° 99° (E) 10:51:18 437.445
QB50P1 28 Mar 10:47:10 10:50:48 29° 71° (ENE) 10:54:30 145.935-145.965
VELOX 1 28 Mar 10:47:16 10:48:26 11° 89° (E) 10:49:53 145.980
DUCHIFAT 1 28 Mar 10:49:42 10:53:23 31° 72° (ENE) 10:57:07 145.980
BEESAT 2 28 Mar 10:49:58 10:53:56 51° 117° (ESE) 10:57:58 435.950
AISAT 28 Mar 10:50:43 10:52:38 13° 90° (E) 10:54:48 437.250
ZACube-1 28 Mar 10:51:38 10:55:50 44° 99° (E) 11:00:08 437.345
QB50P2 28 Mar 11:01:08 11:05:08 43° 74° (ENE) 11:09:10 145.880/145.840
CANX-2 28 Mar 11:09:06 11:11:40 15° 292° (WNW) 11:14:04 2200.000
ESTCUBE 1 28 Mar 11:16:12 11:18:00 12° 89° (E) 11:20:03 437.505/2401.250
50 SAT 28 Mar 11:17:40 11:21:04 26° 96° (E) 11:24:33 437.505
CUTE 1.7 + AOD 2 28 Mar 11:24:05 11:25:43 12° 294° (WNW) 11:27:07 437.475
BEESAT 3 28 Mar 11:28:33 11:32:31 48° 304° (NW) 11:36:31 437.485
POPSAT HIP 1 28 Mar 11:29:58 11:34:12 85° 257° (WSW) 11:38:26 437.405
UNISAT 6 28 Mar 11:29:58 11:34:01 42° 262° (W) 11:38:06 437.425
VERMONT LUNAR 28 Mar 11:30:31 11:33:42 40° 206° (SSW) 11:36:54 437.305
BUGSAT 1 28 Mar 11:35:41 11:39:52 79° 77° (ENE) 11:44:01 437.445
UKube-1 28 Mar 11:37:15 11:41:35 79° 285° (WNW) 11:45:54 .
DELFI C3 28 Mar 11:38:13 11:41:54 31° 288° (WNW) 11:45:30 145.870
HO-68 28 Mar 11:40:11 11:45:40 23° 299° (WNW) 11:50:54 435.675
TIGRISAT 28 Mar 11:41:05 11:44:55 32° 263° (W) 11:48:45 435.000
NANOSAT C BR1 28 Mar 11:41:09 11:45:20 62° 259° (W) 11:49:32 145.865
POLYITAN 1 28 Mar 11:44:20 11:48:29 55° 260° (W) 11:52:38 437.675
DX 1 28 Mar 11:45:54 11:50:11 59° 286° (WNW) 11:54:26 434.975-435.025
HUMSAT D 28 Mar 11:52:15 11:56:30 73° 284° (WNW) 12:00:47 437.325/437.525
AIST 2 28 Mar 11:54:40 11:58:54 90° 174° (S) 12:03:14 435.215
PHONESAT 2.4 28 Mar 12:00:54 12:04:23 57° 204° (SSW) 12:07:53 2401.200-2431.200
CINEMA 3 28 Mar 12:01:30 12:03:18 12° 293° (WNW) 12:04:55 145.822/145.860
Oscar 11 28 Mar 12:09:07 12:11:22 14° 293° (WNW) 12:13:25 145.826/435.025
ANTELSAT 28 Mar 12:12:25 12:14:54 15° 269° (W) 12:17:13 437.575/2403.000
FUNcube-1 28 Mar 12:16:12 12:19:34 21° 290° (WNW) 12:22:51 145.935
UWE-3 28 Mar 12:17:46 12:20:40 17° 292° (WNW) 12:23:28 435.000/436.395/437.385
CUBEBUG 2 28 Mar 12:20:56 12:23:10 13° 293° (WNW) 12:25:13 437.445
VELOX 1 28 Mar 12:21:07 12:25:27 58° 286° (WNW) 12:29:46 145.980
QB50P1 28 Mar 12:23:31 12:26:44 20° 266° (W) 12:29:50 145.935-145.965
CUBEBUG 1 28 Mar 12:24:36 12:28:56 68° 101° (E) 12:33:13 437.445
AISAT 28 Mar 12:25:20 12:29:36 50° 286° (WNW) 12:33:51 437.250
DUCHIFAT 1 28 Mar 12:26:11 12:29:18 19° 267° (W) 12:32:18 145.980
ZACube-1 28 Mar 12:29:13 12:31:55 16° 292° (WNW) 12:34:28 437.345
BEESAT 2 28 Mar 12:29:48 12:32:26 16° 315° (NW) 12:34:57 435.950
TISAT 1 28 Mar 12:33:22 12:35:58 16° 92° (E) 12:38:42 437.305
SPROUT 28 Mar 12:38:50 12:42:15 23° 95° (E) 12:45:43 437.525
QB50P2 28 Mar 12:39:04 12:41:20 14° 269° (W) 12:43:23 145.880/145.840
Oscar 19 28 Mar 12:50:19 12:54:07 22° 67° (ENE) 12:58:04 437.125/150
ESTCUBE 1 28 Mar 12:50:52 12:55:18 54° 286° (WNW) 12:59:40 437.505/2401.250
50 SAT 28 Mar 12:52:46 12:55:53 21° 290° (WNW) 12:58:54 437.505
YUBILEINY 28 Mar 13:01:45 13:07:51 23° 83° (E) 13:14:23 435.215
O/OREOS (USA 219) 28 Mar 13:20:56 13:21:05 10° 51° (NE) 13:21:29 437.305
AIST 2 28 Mar 13:36:53 13:38:13 11° 319° (NW) 13:39:21 435.215
ITUPSAT 1 28 Mar 13:37:11 13:39:13 13° 89° (E) 13:41:33 437.325
PHONESAT 2.4 28 Mar 13:40:50 13:42:19 12° 216° (SW) 13:43:42 2401.200-2431.200
ITAMSAT 1 28 Mar 13:52:43 13:57:06 29° 69° (ENE) 14:01:33 435.822/435.867
AO-7 28 Mar 13:59:06 13:59:58 10° 48° (NE) 14:01:25 29.400- 29.500
CUBEBUG 1 28 Mar 14:04:09 14:04:48 10° 295° (WNW) 14:05:11 437.445
TISAT 1 28 Mar 14:08:05 14:11:57 36° 287° (WNW) 14:15:45 437.305
PCSat 28 Mar 14:08:44 14:11:42 15° 106° (ESE) 14:14:55 145.827
SPROUT 28 Mar 14:14:42 14:18:19 26° 289° (WNW) 14:21:52 437.525
SWISSCUBE 28 Mar 14:23:32 14:28:09 46° 99° (E) 14:32:45 437.505
BEESAT 28 Mar 14:26:42 14:31:18 46° 99° (E) 14:35:54 436.000
Oscar 19 28 Mar 14:28:26 14:33:14 41° 262° (W) 14:38:03 437.125/150
Gurwin Techsat 1B 28 Mar 14:34:38 14:39:48 57° 74° (ENE) 14:45:02 435.225
KKS-1 28 Mar 14:53:09 14:55:35 15° 91° (E) 14:58:13 437.445
YUBILEINY 28 Mar 14:55:10 15:03:57 70° 280° (W) 15:12:47 435.215
JAS-2 28 Mar 14:55:20 14:59:04 16° 57° (ENE) 15:03:23 435.910
O/OREOS (USA 219) 28 Mar 14:56:40 15:01:15 83° 251° (WSW) 15:05:45 437.305
AIST 1 28 Mar 14:59:36 15:02:05 15° 71° (ENE) 15:04:44
ITUPSAT 1 28 Mar 15:12:52 15:17:36 58° 286° (WNW) 15:22:17 437.325
STARS 28 Mar 15:26:47 15:30:11 22° 94° (E) 15:33:41 437.465
ITAMSAT 1 28 Mar 15:31:51 15:36:32 32° 264° (W) 15:41:09 435.822/435.867
AO-7 28 Mar 15:43:10 15:51:07 53° 67° (ENE) 15:59:07 29.400- 29.500
PCSat 28 Mar 15:49:16 15:54:38 64° 299° (WNW) 16:00:02 145.827
HORYU 2 28 Mar 16:00:27 16:04:52 84° 257° (WSW) 16:09:20 437.375
SWISSCUBE 28 Mar 16:02:29 16:05:41 18° 294° (WNW) 16:08:43 437.505
BEESAT 28 Mar 16:05:36 16:08:50 18° 294° (WNW) 16:11:54 436.000
JUGNU 28 Mar 16:09:26 16:12:09 13° 178° (S) 16:14:54 437.505
Gurwin Techsat 1B 28 Mar 16:16:53 16:20:14 16° 270° (W) 16:23:21 435.225
KKS-1 28 Mar 16:28:16 16:32:31 44° 287° (WNW) 16:36:44 437.445
AIST 1 28 Mar 16:35:59 16:40:00 38° 268° (W) 16:43:55
JAS-2 28 Mar 16:36:13 16:42:58 84° 75° (ENE) 16:50:34 435.910
YUBILEINY 28 Mar 16:59:12 17:02:51 12° 303° (WNW) 17:05:47 435.215
STARS 28 Mar 17:02:51 17:06:41 29° 289° (WNW) 17:10:28 437.465
SRMSAT 28 Mar 17:07:20 17:09:34 12° 174° (S) 17:11:51 437.500
AO-7 28 Mar 17:36:56 17:44:14 32° 264° (W) 17:51:21 29.400- 29.500
PCSat 28 Mar 17:38:12 17:39:16 10° 321° (NW) 17:40:03 145.827
AUBIESAT-1 28 Mar 17:38:37 17:41:38 17° 95° (E) 17:44:47 437.475
Cubesat XI-IV 28 Mar 17:46:06 17:50:31 28° 68° (ENE) 17:55:03 437.490
CUTE-I 28 Mar 17:46:13 17:50:36 27° 68° (ENE) 17:55:06 437.470
MOZHAYETS 4 28 Mar 17:56:19 18:01:00 87° 102° (ESE) 18:05:39
JUGNU 28 Mar 17:58:18 18:00:21 12° 188° (S) 18:02:20 437.505
M-CUBED/EXP-1 PRIME 28 Mar 18:01:15 18:05:37 33° 101° (E) 18:09:55 437.505
